�������l�o���
Date,Time,MP-1(��Sv/h),MP-2(��Sv/h),MP-3(��Sv/h),MP-4(��Sv/h),MP-5(��Sv/h),MP-6(��Sv/h),MP-7(��Sv/h),MP-8(��Sv/h),����,����(m/s),���J
2021/09/22,00:00,0.593,0.885,0.563,1.075,0.767,0.363,0.625,0.585,��쓌,4.2,��
2021/09/22,00:10,0.595,0.885,0.563,1.075,0.768,0.361,0.624,0.585,��,3.5,��
2021/09/22,00:20,0.592,0.886,0.564,1.077,0.767,0.362,0.625,0.584,��,2.8,��
2021/09/22,00:30,0.593,0.888,0.565,1.076,0.768,0.363,0.626,0.585,��,2.5,��
2021/09/22,00:40,0.594,0.888,0.565,1.074,0.766,0.362,0.627,0.585,��,2.0,��
2021/09/22,00:50,0.594,0.887,0.565,1.077,0.767,0.362,0.626,0.584,��쓌,1.9,��
2021/09/22,01:00,0.595,0.886,0.563,1.076,0.767,0.363,0.625,0.585,��쓌,2.0,��
2021/09/22,01:10,0.595,0.886,0.564,1.075,0.769,0.361,0.626,0.588,��쓌,3.1,��
2021/09/22,01:20,0.595,0.888,0.564,1.073,0.768,0.363,0.624,0.586,��쓌,2.8,��
2021/09/22,01:30,0.596,0.887,0.566,1.075,0.768,0.362,0.625,0.586,��쓌,3.1,��
2021/09/22,01:40,0.595,0.887,0.564,1.076,0.767,0.362,0.623,0.585,��,4.0,��
2021/09/22,01:50,0.594,0.887,0.565,1.073,0.768,0.362,0.625,0.586,��,3.8,��
2021/09/22,02:00,0.594,0.886,0.565,1.074,0.768,0.363,0.623,0.586,��쓌,3.4,��
2021/09/22,02:10,0.594,0.887,0.566,1.076,0.768,0.364,0.625,0.586,��,3.3,��
2021/09/22,02:20,0.593,0.885,0.566,1.077,0.767,0.363,0.626,0.586,��,4.2,��
2021/09/22,02:30,0.595,0.888,0.565,1.077,0.767,0.363,0.624,0.586,��,4.3,��
2021/09/22,02:40,0.593,0.884,0.565,1.076,0.770,0.363,0.626,0.587,��,4.6,��
2021/09/22,02:50,0.596,0.888,0.565,1.075,0.768,0.362,0.624,0.586,��,4.6,��
2021/09/22,03:00,0.595,0.887,0.565,1.077,0.767,0.363,0.625,0.587,��,5.0,��
2021/09/22,03:10,0.593,0.887,0.565,1.076,0.768,0.362,0.625,0.587,��쓌,4.8,��
2021/09/22,03:20,0.593,0.886,0.566,1.076,0.768,0.362,0.626,0.585,��,3.9,��
2021/09/22,03:30,0.595,0.887,0.565,1.075,0.769,0.363,0.627,0.586,��,3.1,��
2021/09/22,03:40,0.595,0.886,0.565,1.076,0.768,0.363,0.625,0.586,��,2.8,��
2021/09/22,03:50,0.594,0.889,0.564,1.076,0.768,0.363,0.624,0.586,��쓌,2.6,��
2021/09/22,04:00,0.594,0.888,0.565,1.075,0.767,0.362,0.626,0.586,��쓌,3.3,��
2021/09/22,04:10,0.595,0.889,0.565,1.077,0.769,0.364,0.625,0.585,��,3.9,��
2021/09/22,04:20,0.594,0.887,0.565,1.075,0.768,0.364,0.624,0.586,��,3.9,��
2021/09/22,04:30,0.592,0.886,0.565,1.076,0.767,0.364,0.624,0.585,��,3.7,��
2021/09/22,04:40,0.594,0.887,0.565,1.077,0.768,0.364,0.626,0.587,��쓌,4.1,��
2021/09/22,04:50,0.595,0.887,0.565,1.074,0.767,0.364,0.625,0.587,��쓌,3.7,��
2021/09/22,05:00,0.593,0.886,0.564,1.076,0.767,0.363,0.625,0.585,��,3.2,��
2021/09/22,05:10,0.595,0.887,0.565,1.075,0.768,0.363,0.626,0.587,��,2.3,��
2021/09/22,05:20,0.594,0.886,0.566,1.075,0.768,0.363,0.626,0.587,��,2.8,��
2021/09/22,05:30,0.594,0.888,0.565,1.075,0.767,0.362,0.626,0.585,��,2.0,��
2021/09/22,05:40,0.594,0.886,0.565,1.076,0.769,0.363,0.627,0.585,��,1.7,��
2021/09/22,05:50,0.594,0.887,0.564,1.076,0.767,0.363,0.625,0.587,��,1.7,��
2021/09/22,06:00,0.595,0.887,0.564,1.076,0.769,0.363,0.626,0.586,��,2.5,��
2021/09/22,06:10,0.594,0.888,0.566,1.076,0.768,0.363,0.626,0.586,��,2.5,��
2021/09/22,06:20,0.595,0.888,0.566,1.076,0.767,0.362,0.626,0.587,��,2.5,��
2021/09/22,06:30,0.595,0.889,0.566,1.077,0.767,0.363,0.626,0.588,��,2.9,��
2021/09/22,06:40,0.595,0.887,0.565,1.076,0.769,0.361,0.626,0.586,��,3.1,��
2021/09/22,06:50,0.595,0.887,0.566,1.078,0.766,0.362,0.626,0.588,��쓌,3.6,��
2021/09/22,07:00,0.593,0.887,0.564,1.077,0.768,0.363,0.629,0.587,��쓌,3.1,��
2021/09/22,07:10,0.595,0.888,0.564,1.077,0.768,0.361,0.629,0.586,��쓌,2.3,��
2021/09/22,07:20,0.598,0.884,0.566,1.076,0.768,0.360,0.627,0.587,��,3.1,��
2021/09/22,07:30,0.595,0.884,0.565,1.075,0.769,0.360,0.627,0.588,��,3.2,��
2021/09/22,07:40,0.597,0.885,0.564,1.075,0.767,0.360,0.626,0.588,��,2.8,��
2021/09/22,07:50,0.594,0.884,0.565,1.075,0.767,0.361,0.627,0.586,��쓌,2.6,��
2021/09/22,08:00,0.594,0.886,0.563,1.080,0.768,0.360,0.626,0.586,��,3.7,��
2021/09/22,08:10,0.594,0.888,0.563,1.077,0.768,0.362,0.628,0.587,��,2.8,��
2021/09/22,08:20,0.593,0.886,0.564,1.078,0.768,0.362,0.625,0.584,��,4.2,��
2021/09/22,08:30,0.594,0.888,0.565,1.077,0.768,0.362,0.625,0.585,��쓌,5.2,��
2021/09/22,08:40,0.595,0.886,0.565,1.078,0.768,0.362,0.626,0.583,��,5.2,��
2021/09/22,08:50,0.595,0.889,0.565,1.077,0.767,0.362,0.626,0.583,��,6.3,��
2021/09/22,09:00,0.593,0.889,0.564,1.078,0.768,0.361,0.625,0.583,��쓌,7.1,��
2021/09/22,09:10,0.595,0.887,0.565,1.078,0.769,0.362,0.625,0.584,��쓌,7.9,��
2021/09/22,09:20,0.595,0.888,0.565,1.076,0.767,0.360,0.625,0.585,��,5.9,��
2021/09/22,09:30,0.595,0.888,0.566,1.078,0.769,0.361,0.625,0.586,��,5.9,��
2021/09/22,09:40,0.596,0.890,0.565,1.077,0.768,0.362,0.627,0.586,��,4.9,��
2021/09/22,09:50,0.596,0.891,0.567,1.078,0.770,0.363,0.627,0.585,��,6.9,��
2021/09/22,10:00,0.595,0.892,0.566,1.077,0.769,0.361,0.626,0.584,��,6.3,��
2021/09/22,10:10,0.595,0.889,0.565,1.078,0.769,0.363,0.627,0.586,��,7.7,��
2021/09/22,10:20,0.597,0.876,0.565,1.078,0.768,0.361,0.628,0.585,��,8.9,��
2021/09/22,10:30,0.596,0.878,0.562,1.078,0.769,0.362,0.626,0.587,��,10.7,��
2021/09/22,10:40,0.597,0.880,0.568,1.079,0.769,0.362,0.627,0.585,��,11.4,��
2021/09/22,10:50,0.597,0.882,0.565,1.079,0.770,0.362,0.627,0.586,��,10.5,��
2021/09/22,11:00,0.597,0.890,0.568,1.079,0.770,0.363,0.627,0.585,��,10.0,��
2021/09/22,11:10,0.597,0.893,0.568,1.081,0.771,0.362,0.626,0.585,��,10.7,��
2021/09/22,11:20,0.597,0.894,0.567,1.077,0.771,0.365,0.626,0.585,��,11.4,��
2021/09/22,11:30,0.595,0.893,0.567,1.079,0.772,0.363,0.628,0.586,��쓌,11.3,��
2021/09/22,11:40,0.599,0.889,0.567,1.079,0.770,0.363,0.627,0.586,��,9.4,��
2021/09/22,11:50,0.597,0.891,0.567,1.079,0.772,0.363,0.626,0.584,��,12.7,��
2021/09/22,12:00,0.598,0.893,0.567,1.079,0.773,0.362,0.628,0.584,��쓌,13.0,��
2021/09/22,12:10,0.596,0.895,0.567,1.080,0.772,0.363,0.627,0.585,��,12.5,��
2021/09/22,12:20,0.597,0.892,0.567,1.078,0.773,0.363,0.630,0.584,��쓌,10.8,��
2021/09/22,12:30,0.599,0.894,0.566,1.080,0.771,0.367,0.628,0.586,��,10.7,��
2021/09/22,12:40,0.597,0.895,0.568,1.079,0.772,0.365,0.626,0.586,��,9.8,��
2021/09/22,12:50,0.598,0.895,0.567,1.080,0.771,0.367,0.629,0.586,��,9.8,��
2021/09/22,13:00,0.599,0.896,0.568,1.081,0.771,0.365,0.628,0.586,��,6.7,��
2021/09/22,13:10,0.599,0.894,0.567,1.080,0.773,0.367,0.627,0.585,��,10.5,��
2021/09/22,13:20,0.597,0.894,0.568,1.080,0.772,0.366,0.627,0.587,��,11.0,��
2021/09/22,13:30,0.599,0.897,0.567,1.080,0.772,0.365,0.628,0.586,��,11.0,��
2021/09/22,13:40,0.598,0.898,0.567,1.079,0.772,0.367,0.628,0.587,��,12.0,��
2021/09/22,13:50,0.598,0.895,0.567,1.081,0.773,0.368,0.628,0.586,��,11.3,��
2021/09/22,14:00,0.598,0.895,0.568,1.080,0.772,0.365,0.628,0.586,��,11.9,��
2021/09/22,14:10,0.599,0.895,0.568,1.078,0.774,0.367,0.626,0.585,��쓌,11.6,��
2021/09/22,14:20,0.600,0.898,0.568,1.079,0.774,0.366,0.627,0.586,��,12.8,��
2021/09/22,14:30,0.599,0.896,0.568,1.081,0.774,0.365,0.627,0.585,��,12.0,��
2021/09/22,14:40,0.599,0.897,0.566,1.079,0.772,0.365,0.627,0.585,��,12.5,��
2021/09/22,14:50,0.598,0.898,0.568,1.083,0.774,0.366,0.627,0.586,��,11.3,��
2021/09/22,15:00,0.600,0.897,0.567,1.079,0.775,0.364,0.628,0.586,��쓌,10.2,��
2021/09/22,15:10,0.597,0.896,0.567,1.084,0.775,0.366,0.626,0.585,��,9.6,��
2021/09/22,15:20,0.598,0.895,0.568,1.082,0.774,0.364,0.628,0.586,��,10.8,��
2021/09/22,15:30,0.600,0.895,0.568,1.085,0.773,0.366,0.628,0.586,��,10.5,��
2021/09/22,15:40,0.599,0.898,0.568,1.080,0.774,0.367,0.626,0.585,��,10.7,��
2021/09/22,15:50,0.597,0.898,0.567,1.082,0.773,0.367,0.625,0.586,��,9.5,��
2021/09/22,16:00,0.598,0.896,0.567,1.081,0.772,0.367,0.629,0.586,��,10.6,��
2021/09/22,16:10,0.599,0.895,0.568,1.080,0.773,0.367,0.625,0.584,��,11.3,��
2021/09/22,16:20,0.598,0.899,0.567,1.081,0.772,0.368,0.628,0.584,��,10.0,��
2021/09/22,16:30,0.599,0.896,0.569,1.081,0.774,0.368,0.626,0.585,��,9.6,��
2021/09/22,16:40,0.599,0.897,0.569,1.083,0.775,0.367,0.626,0.586,��,8.2,��
2021/09/22,16:50,0.597,0.899,0.567,1.083,0.776,0.366,0.629,0.586,��,6.3,�L
2021/09/22,17:00,0.600,0.899,0.571,1.082,0.775,0.365,0.629,0.585,��,6.9,��
2021/09/22,17:10,0.597,0.899,0.568,1.084,0.775,0.366,0.629,0.587,��,6.7,��
2021/09/22,17:20,0.597,0.900,0.570,1.084,0.776,0.366,0.629,0.587,��,6.6,��
2021/09/22,17:30,0.598,0.899,0.569,1.084,0.776,0.367,0.629,0.587,��,5.6,��
2021/09/22,17:40,0.599,0.899,0.571,1.081,0.777,0.365,0.628,0.587,��,5.1,��
2021/09/22,17:50,0.599,0.897,0.569,1.083,0.776,0.365,0.629,0.587,��,5.6,��
2021/09/22,18:00,0.597,0.899,0.570,1.083,0.774,0.365,0.628,0.587,��,6.4,��
2021/09/22,18:10,0.599,0.901,0.569,1.082,0.776,0.366,0.629,0.587,��,5.3,��
2021/09/22,18:20,0.598,0.899,0.569,1.081,0.775,0.365,0.628,0.588,��쐼,5.0,��
2021/09/22,18:30,0.598,0.897,0.570,1.083,0.776,0.365,0.629,0.586,��,4.0,��
2021/09/22,18:40,0.597,0.901,0.570,1.083,0.774,0.364,0.630,0.589,��,4.8,��
2021/09/22,18:50,0.598,0.899,0.570,1.082,0.774,0.366,0.629,0.586,��,5.8,��
2021/09/22,19:00,0.598,0.899,0.570,1.084,0.775,0.365,0.628,0.589,��,5.0,��
2021/09/22,19:10,0.598,0.899,0.570,1.084,0.776,0.365,0.628,0.587,��,5.8,��
2021/09/22,19:20,0.599,0.897,0.569,1.081,0.775,0.365,0.628,0.588,��,5.3,��
2021/09/22,19:30,0.599,0.899,0.571,1.084,0.774,0.365,0.628,0.588,��,5.2,��
2021/09/22,19:40,0.598,0.899,0.570,1.085,0.776,0.365,0.629,0.587,��,4.5,��
2021/09/22,19:50,0.599,0.900,0.570,1.082,0.775,0.365,0.629,0.587,��,5.0,��
2021/09/22,20:00,0.600,0.899,0.571,1.084,0.774,0.365,0.627,0.586,��,6.5,��
2021/09/22,20:10,0.599,0.900,0.570,1.082,0.775,0.365,0.628,0.588,��쐼,5.4,��
2021/09/22,20:20,0.600,0.899,0.568,1.082,0.775,0.365,0.628,0.588,��쐼,5.2,��
2021/09/22,20:30,0.598,0.900,0.570,1.085,0.777,0.365,0.629,0.588,��쐼,4.3,��
2021/09/22,20:40,0.600,0.898,0.571,1.082,0.776,0.363,0.629,0.588,��,3.8,��
2021/09/22,20:50,0.600,0.900,0.570,1.083,0.776,0.366,0.629,0.587,��,3.1,��
2021/09/22,21:00,0.601,0.899,0.571,1.087,0.774,0.365,0.630,0.588,��쐼,0.6,��
2021/09/22,21:10,0.602,0.899,0.569,1.082,0.775,0.367,0.628,0.588,��,1.5,��
2021/09/22,21:20,0.601,0.899,0.569,1.084,0.777,0.364,0.629,0.589,-,CALM,��
2021/09/22,21:30,0.600,0.898,0.572,1.084,0.777,0.364,0.629,0.588,���k��,1.1,�L
2021/09/22,21:40,0.600,0.900,0.570,1.085,0.777,0.365,0.628,0.587,�k�k��,2.3,��
2021/09/22,21:50,0.601,0.899,0.571,1.084,0.776,0.365,0.630,0.590,�k�k��,3.3,��
2021/09/22,22:00,0.600,0.900,0.572,1.082,0.777,0.365,0.629,0.587,�k�k��,3.0,�L
2021/09/22,22:10,0.600,0.899,0.572,1.085,0.776,0.364,0.628,0.587,�k�k��,3.4,�L
2021/09/22,22:20,0.601,0.899,0.572,1.083,0.776,0.365,0.628,0.588,�k�k��,4.0,��
2021/09/22,22:30,0.599,0.899,0.572,1.085,0.777,0.364,0.629,0.587,�k�k��,5.4,�L
2021/09/22,22:40,0.599,0.900,0.570,1.083,0.776,0.365,0.628,0.588,�k�k��,5.2,�L
2021/09/22,22:50,0.597,0.892,0.568,1.082,0.775,0.365,0.628,0.588,�k��,6.7,�L
2021/09/22,23:00,0.593,0.887,0.569,1.080,0.775,0.365,0.626,0.589,�k�k��,6.1,�L
2021/09/22,23:10,0.596,0.885,0.568,1.081,0.774,0.365,0.628,0.589,�k�k��,4.2,�L
2021/09/22,23:20,0.592,0.886,0.567,1.079,0.772,0.361,0.625,0.589,�k�k��,5.1,��
2021/09/22,23:30,0.589,0.882,0.566,1.081,0.771,0.364,0.627,0.588,�k,4.1,��
2021/09/22,23:40,0.591,0.883,0.564,1.082,0.771,0.363,0.626,0.588,�k,2.9,��
2021/09/22,23:50,0.590,0.882,0.564,1.078,0.770,0.364,0.626,0.587,�k,3.3,��
